| time (UTC) | temp F | wind direction | speed MPH | gust MPH | rain 1hr in | rain 24hr in | rain mn in | humidity % | barometer mb |
| 20260902202057 | 94 | 269 | 5.0 | 12.0 | 0.00 | 0.00 | 0.00 | 54 | 1017.1 |
| 20260902201606 | 94 | 246 | 6.0 | 12.0 | 0.00 | 0.00 | 0.00 | 54 | 1017.2 |
| 20260902201059 | 94 | 267 | 5.0 | 12.0 | 0.00 | 0.00 | 0.00 | 55 | 1017.3 |
| 20260902200557 | 93 | 275 | 6.0 | 13.0 | 0.00 | 0.00 | 0.00 | 55 | 1017.2 |
| 20260902200119 | 93 | 252 | 7.0 | 13.0 | 0.00 | 0.00 | 0.00 | 57 | 1017.2 |
| 20260902195557 | 94 | 253 | 7.0 | 13.0 | 0.00 | 0.00 | 0.00 | 55 | 1017.3 |
| 20260902195100 | 94 | 265 | 6.0 | 13.0 | 0.00 | 0.00 | 0.00 | 55 | 1017.4 |
| 20260902194607 | 94 | 265 | 5.0 | 13.0 | 0.00 | 0.00 | 0.00 | 57 | 1017.4 |
| 20260902194059 | 93 | 287 | 6.0 | 15.0 | 0.00 | 0.00 | 0.00 | 56 | 1017.4 |
| 20260902193559 | 93 | 196 | 5.0 | 16.0 | 0.00 | 0.00 | 0.00 | 55 | 1017.4 |
| 20260902193107 | 93 | 204 | 7.0 | 16.0 | 0.00 | 0.00 | 0.00 | 54 | 1017.5 |
| 20260902192602 | 93 | 193 | 7.0 | 17.0 | 0.00 | 0.00 | 0.00 | 53 | 1017.5 |
| 20260902192104 | 93 | 191 | 8.0 | 17.0 | 0.00 | 0.00 | 0.00 | 54 | 1017.6 |
| 20260902191604 | 93 | 265 | 8.0 | 15.0 | 0.00 | 0.00 | 0.00 | 53 | 1017.5 |
| 20260902191059 | 94 | 194 | 7.0 | 15.0 | 0.00 | 0.00 | 0.00 | 55 | 1017.7 |
| 20260902190559 | 94 | 250 | 7.0 | 14.0 | 0.00 | 0.00 | 0.00 | 55 | 1017.8 |
| 20260902190104 | 94 | 261 | 5.0 | 10.0 | 0.00 | 0.00 | 0.00 | 54 | 1017.8 |
| 20260902185557 | 94 | 270 | 3.0 | 12.0 | 0.00 | 0.00 | 0.00 | 56 | 1017.9 |
| 20260902185057 | 94 | 287 | 7.0 | 12.0 | 0.00 | 0.00 | 0.00 | 54 | 1017.8 |
| 20260902184658 | 94 | 252 | 6.0 | 12.0 | 0.00 | 0.00 | 0.00 | 54 | 1017.9 |
| 20260902184059 | 94 | 203 | 8.0 | 12.0 | 0.00 | 0.00 | 0.00 | 55 | 1017.9 |
| 20260902183601 | 94 | 276 | 4.0 | 11.0 | 0.00 | 0.00 | 0.00 | 54 | 1017.9 |
| 20260902183108 | 94 | 228 | 5.0 | 12.0 | 0.00 | 0.00 | 0.00 | 53 | 1018.0 |
| 20260902182600 | 94 | 251 | 7.0 | 13.0 | 0.00 | 0.00 | 0.00 | 53 | 1018.1 |
| 20260902182100 | 94 | 253 | 8.0 | 13.0 | 0.00 | 0.00 | 0.00 | 54 | 1018.2 |
| 20260902181604 | 94 | 212 | 4.0 | 13.0 | 0.00 | 0.00 | 0.00 | 54 | 1018.1 |
| 20260902181101 | 94 | 235 | 6.0 | 13.0 | 0.00 | 0.00 | 0.00 | 55 | 1018.0 |
| 20260902180600 | 94 | 258 | 2.0 | 10.0 | 0.00 | 0.00 | 0.00 | 55 | 1018.2 |
| 20260902180133 | 94 | 237 | 3.0 | 12.0 | 0.00 | 0.00 | 0.00 | 55 | 1018.2 |
| 20260902175600 | 94 | 282 | 6.0 | 12.0 | 0.00 | 0.00 | 0.00 | 55 | 1018.3 |
| 20260902175100 | 93 | 267 | 6.0 | 13.0 | 0.00 | 0.00 | 0.00 | 57 | 1018.3 |
| 20260902174615 | 94 | 287 | 7.0 | 13.0 | 0.00 | 0.00 | 0.00 | 53 | 1018.3 |
| 20260902174102 | 94 | 261 | 7.0 | 12.0 | 0.00 | 0.00 | 0.00 | 54 | 1018.6 |
| 20260902173557 | 94 | 298 | 5.0 | 11.0 | 0.00 | 0.00 | 0.00 | 55 | 1018.6 |
| 20260902173105 | 94 | 289 | 5.0 | 12.0 | 0.00 | 0.00 | 0.00 | 57 | 1018.8 |
| 20260902172602 | 93 | 311 | 5.0 | 12.0 | 0.00 | 0.00 | 0.00 | 56 | 1018.8 |
| 20260902172057 | 93 | 246 | 4.0 | 9.0 | 0.00 | 0.00 | 0.00 | 58 | 1018.6 |
| 20260902171626 | 93 | 260 | 5.0 | 9.0 | 0.00 | 0.00 | 0.00 | 59 | 1018.7 |
| 20260902171058 | 94 | 188 | 2.0 | 11.0 | 0.00 | 0.00 | 0.00 | 60 | 1018.7 |
| 20260902170600 | 93 | 229 | 3.0 | 13.0 | 0.00 | 0.00 | 0.00 | 57 | 1018.7 |
| 20260902170104 | 93 | 258 | 5.0 | 13.0 | 0.00 | 0.00 | 0.00 | 57 | 1018.7 |
| 20260902165602 | 92 | 281 | 4.0 | 11.0 | 0.00 | 0.00 | 0.00 | 60 | 1018.9 |
| 20260902165100 | 92 | 237 | 5.0 | 11.0 | 0.00 | 0.00 | 0.00 | 58 | 1018.9 |
| 20260902164621 | 92 | 217 | 6.0 | 11.0 | 0.00 | 0.00 | 0.00 | 59 | 1018.9 |
| 20260902164057 | 92 | 219 | 5.0 | 10.0 | 0.00 | 0.00 | 0.00 | 58 | 1018.8 |
| 20260902163600 | 92 | 302 | 4.0 | 9.0 | 0.00 | 0.00 | 0.00 | 61 | 1018.8 |
| 20260902163106 | 92 | 281 | 4.0 | 10.0 | 0.00 | 0.00 | 0.00 | 58 | 1018.9 |
| 20260902162556 | 92 | 226 | 4.0 | 10.0 | 0.00 | 0.00 | 0.00 | 59 | 1018.9 |
| 20260902162059 | 92 | 283 | 4.0 | 10.0 | 0.00 | 0.00 | 0.00 | 62 | 1018.9 |
| 20260902161612 | 92 | 248 | 5.0 | 10.0 | 0.00 | 0.00 | 0.00 | 60 | 1018.9 |
| 20260902161056 | 92 | 240 | 3.0 | 8.0 | 0.00 | 0.00 | 0.00 | 59 | 1018.8 |
| 20260902160601 | 92 | 271 | 2.0 | 9.0 | 0.00 | 0.00 | 0.00 | 59 | 1018.8 |
| 20260902160111 | 92 | 330 | 3.0 | 11.0 | 0.00 | 0.00 | 0.00 | 60 | 1018.9 |
| 20260902155557 | 92 | 342 | 5.0 | 11.0 | 0.00 | 0.00 | 0.00 | 60 | 1019.0 |
| 20260902155100 | 91 | 259 | 2.0 | 11.0 | 0.00 | 0.00 | 0.00 | 62 | 1019.0 |
| 20260902154605 | 91 | 268 | 6.0 | 11.0 | 0.00 | 0.00 | 0.00 | 60 | 1019.1 |
| 20260902154059 | 91 | 264 | 4.0 | 9.0 | 0.00 | 0.00 | 0.00 | 63 | 1019.1 |
| 20260902153600 | 90 | 288 | 3.0 | 9.0 | 0.00 | 0.00 | 0.00 | 64 | 1019.1 |
| 20260902153105 | 90 | 244 | 5.0 | 9.0 | 0.00 | 0.00 | 0.00 | 62 | 1019.1 |
| 20260902152601 | 90 | 264 | 4.0 | 9.0 | 0.00 | 0.00 | 0.00 | 63 | 1019.1 |
| 20260902152100 | 90 | 297 | 2.0 | 10.0 | 0.00 | 0.00 | 0.00 | 63 | 1019.1 |
| 20260902151605 | 89 | 267 | 4.0 | 10.0 | 0.00 | 0.00 | 0.00 | 65 | 1019.1 |
| 20260902151101 | 89 | 252 | 3.0 | 9.0 | 0.00 | 0.00 | 0.00 | 67 | 1019.1 |
| 20260902150559 | 88 | 286 | 5.0 | 11.0 | 0.00 | 0.00 | 0.00 | 65 | 1019.2 |
| 20260902150109 | 88 | 273 | 5.0 | 11.0 | 0.00 | 0.00 | 0.00 | 65 | 1019.2 |
| 20260902145556 | 88 | 279 | 4.0 | 10.0 | 0.00 | 0.00 | 0.00 | 67 | 1019.2 |
| 20260902145057 | 88 | 271 | 3.0 | 13.0 | 0.00 | 0.00 | 0.00 | 67 | 1019.1 |
| 20260902144604 | 87 | 277 | 3.0 | 13.0 | 0.00 | 0.00 | 0.00 | 68 | 1019.0 |
| 20260902144057 | 87 | 257 | 6.0 | 13.0 | 0.00 | 0.00 | 0.00 | 67 | 1019.1 |
| 20260902143600 | 86 | 262 | 4.0 | 11.0 | 0.00 | 0.00 | 0.00 | 68 | 1019.0 |
| 20260902143108 | 86 | 299 | 4.0 | 12.0 | 0.00 | 0.00 | 0.00 | 69 | 1018.9 |
| 20260902142557 | 86 | 288 | 6.0 | 12.0 | 0.00 | 0.00 | 0.00 | 70 | 1019.0 |
| 20260902142057 | 85 | 277 | 6.0 | 12.0 | 0.00 | 0.00 | 0.00 | 70 | 1019.1 |
| 20260902141603 | 85 | 257 | 4.0 | 11.0 | 0.00 | 0.00 | 0.00 | 71 | 1018.9 |
| 20260902141101 | 85 | 269 | 4.0 | 10.0 | 0.00 | 0.00 | 0.00 | 72 | 1019.0 |
| 20260902140557 | 84 | 290 | 4.0 | 12.0 | 0.00 | 0.00 | 0.00 | 72 | 1019.1 |
| 20260902135601 | 84 | 236 | 6.0 | 10.0 | 0.00 | 0.00 | 0.00 | 73 | 1018.9 |
| 20260902135100 | 83 | 260 | 4.0 | 10.0 | 0.00 | 0.00 | 0.00 | 74 | 1018.9 |
| 20260902134608 | 83 | 288 | 5.0 | 10.0 | 0.00 | 0.00 | 0.00 | 74 | 1018.9 |
| 20260902134059 | 82 | 0 | 6.0 | 14.0 | 0.00 | 0.00 | 0.00 | 75 | 1019.0 |
| 20260902133603 | 82 | 261 | 6.0 | 14.0 | 0.00 | 0.00 | 0.00 | 75 | 1019.0 |
| 20260902133105 | 82 | 252 | 3.0 | 9.0 | 0.00 | 0.00 | 0.00 | 76 | 1018.9 |
| 20260902132556 | 81 | 239 | 4.0 | 10.0 | 0.00 | 0.00 | 0.00 | 76 | 1019.0 |
| 20260902132059 | 81 | 249 | 5.0 | 11.0 | 0.00 | 0.00 | 0.00 | 77 | 1019.0 |
| 20260902131603 | 80 | 265 | 4.0 | 11.0 | 0.00 | 0.00 | 0.00 | 77 | 1018.9 |
| 20260902131102 | 80 | 253 | 4.0 | 11.0 | 0.00 | 0.00 | 0.00 | 78 | 1019.0 |
| 20260902130600 | 80 | 275 | 5.0 | 10.0 | 0.00 | 0.00 | 0.00 | 78 | 1019.1 |
| 20260902130105 | 79 | 296 | 5.0 | 10.0 | 0.00 | 0.00 | 0.00 | 79 | 1019.0 |
| 20260902125557 | 79 | 263 | 4.0 | 10.0 | 0.00 | 0.00 | 0.00 | 79 | 1019.1 |
| 20260902125057 | 79 | 346 | 5.0 | 10.0 | 0.00 | 0.00 | 0.00 | 80 | 1018.9 |
| 20260902124608 | 78 | 267 | 3.0 | 12.0 | 0.00 | 0.00 | 0.00 | 81 | 1018.8 |
| 20260902124056 | 78 | 273 | 4.0 | 12.0 | 0.00 | 0.00 | 0.00 | 81 | 1018.8 |
| 20260902123559 | 77 | 242 | 4.0 | 9.0 | 0.00 | 0.00 | 0.00 | 81 | 1018.7 |
| 20260902123105 | 77 | 260 | 4.0 | 9.0 | 0.00 | 0.00 | 0.00 | 82 | 1018.8 |
| 20260902122603 | 76 | 257 | 4.0 | 8.0 | 0.00 | 0.00 | 0.00 | 82 | 1018.8 |
| 20260902122059 | 76 | 273 | 3.0 | 8.0 | 0.00 | 0.00 | 0.00 | 83 | 1018.8 |
| 20260902121613 | 76 | 263 | 3.0 | 8.0 | 0.00 | 0.00 | 0.00 | 83 | 1018.6 |
| 20260902121057 | 75 | 244 | 3.0 | 8.0 | 0.00 | 0.00 | 0.00 | 83 | 1018.6 |
| 20260902120556 | 75 | 232 | 3.0 | 8.0 | 0.00 | 0.00 | 0.00 | 84 | 1018.8 |
| 20260902120104 | 75 | 240 | 2.0 | 8.0 | 0.00 | 0.00 | 0.00 | 84 | 1018.7 |
| 20260902115557 | 75 | 0 | 2.0 | 8.0 | 0.00 | 0.00 | 0.00 | 84 | 1018.6 |
| 20260902115100 | 74 | 217 | 2.0 | 7.0 | 0.00 | 0.00 | 0.00 | 85 | 1018.6 |
| 20260902114603 | 74 | 246 | 3.0 | 7.0 | 0.00 | 0.00 | 0.00 | 85 | 1018.6 |
| 20260902114057 | 74 | 259 | 1.0 | 5.0 | 0.00 | 0.00 | 0.00 | 85 | 1018.5 |
| 20260902113559 | 74 | 256 | 1.0 | 5.0 | 0.00 | 0.00 | 0.00 | 85 | 1018.4 |
| 20260902113111 | 74 | 263 | 1.0 | 5.0 | 0.00 | 0.00 | 0.00 | 86 | 1018.5 |
| 20260902112601 | 74 | 258 | 1.0 | 7.0 | 0.00 | 0.00 | 0.00 | 86 | 1018.4 |
| 20260902112059 | 74 | 254 | 2.0 | 8.0 | 0.00 | 0.00 | 0.00 | 86 | 1018.4 |
| 20260902111603 | 73 | 243 | 1.0 | 8.0 | 0.00 | 0.00 | 0.00 | 86 | 1018.5 |
| 20260902111058 | 73 | 0 | 2.0 | 7.0 | 0.00 | 0.00 | 0.00 | 86 | 1018.4 |
| 20260902110600 | 73 | 232 | 3.0 | 7.0 | 0.00 | 0.00 | 0.00 | 86 | 1018.4 |
| 20260902110120 | 73 | 257 | 3.0 | 6.0 | 0.00 | 0.00 | 0.00 | 86 | 1018.4 |
| 20260902105556 | 73 | 216 | 2.0 | 5.0 | 0.00 | 0.00 | 0.00 | 86 | 1018.3 |
| 20260902105059 | 73 | 239 | 2.0 | 5.0 | 0.00 | 0.00 | 0.00 | 86 | 1018.3 |
| 20260902104601 | 73 | 228 | 2.0 | 5.0 | 0.00 | 0.00 | 0.00 | 86 | 1018.2 |
| 20260902104058 | 73 | 232 | 2.0 | 6.0 | 0.00 | 0.00 | 0.00 | 86 | 1018.2 |
| 20260902103557 | 73 | 232 | 2.0 | 6.0 | 0.00 | 0.00 | 0.00 | 86 | 1018.3 |
| 20260902103102 | 73 | 252 | 1.0 | 6.0 | 0.00 | 0.00 | 0.00 | 87 | 1018.2 |
| 20260902102557 | 73 | 0 | 2.0 | 6.0 | 0.00 | 0.00 | 0.00 | 87 | 1018.3 |
| 20260902102057 | 73 | 231 | 2.0 | 5.0 | 0.00 | 0.00 | 0.00 | 87 | 1018.2 |
| 20260902101607 | 73 | 220 | 2.0 | 5.0 | 0.00 | 0.00 | 0.00 | 87 | 1018.2 |
| 20260902101102 | 73 | 232 | 1.0 | 5.0 | 0.00 | 0.00 | 0.00 | 87 | 1018.2 |
| 20260902100603 | 73 | 235 | 2.0 | 5.0 | 0.00 | 0.00 | 0.00 | 87 | 1018.3 |
| 20260902100112 | 73 | 0 | 1.0 | 6.0 | 0.00 | 0.00 | 0.00 | 87 | 1018.3 |
| 20260902095557 | 73 | 218 | 2.0 | 6.0 | 0.00 | 0.00 | 0.00 | 87 | 1018.3 |
| 20260902095057 | 73 | 221 | 2.0 | 5.0 | 0.00 | 0.00 | 0.00 | 87 | 1018.3 |
| 20260902094604 | 73 | 238 | 2.0 | 4.0 | 0.00 | 0.00 | 0.00 | 87 | 1018.3 |
| 20260902094059 | 74 | 230 | 1.0 | 4.0 | 0.00 | 0.00 | 0.00 | 87 | 1018.2 |
| 20260902093557 | 74 | 224 | 1.0 | 5.0 | 0.00 | 0.00 | 0.00 | 87 | 1018.1 |
| 20260902093104 | 74 | 0 | 1.0 | 5.0 | 0.00 | 0.00 | 0.00 | 87 | 1018.3 |
| 20260902092559 | 74 | 223 | 1.0 | 4.0 | 0.00 | 0.00 | 0.00 | 87 | 1018.2 |
| 20260902092057 | 74 | 229 | 1.0 | 3.0 | 0.00 | 0.00 | 0.00 | 87 | 1018.3 |
| 20260902091603 | 74 | 236 | 0.0 | 3.0 | 0.00 | 0.00 | 0.00 | 87 | 1018.1 |
| 20260902091057 | 74 | 0 | 0.0 | 0.0 | 0.00 | 0.00 | 0.00 | 87 | 1018.2 |
| 20260902090557 | 74 | 0 | 0.0 | 0.0 | 0.00 | 0.00 | 0.00 | 87 | 1018.2 |
| 20260902090059 | 74 | 0 | 0.0 | 0.0 | 0.00 | 0.00 | 0.00 | 86 | 1018.2 |
| 20260902085559 | 74 | 0 | 0.0 | 0.0 | 0.00 | 0.00 | 0.00 | 86 | 1018.2 |
| 20260902085059 | 74 | 0 | 0.0 | 0.0 | 0.00 | 0.00 | 0.00 | 86 | 1018.1 |
| 20260902084622 | 74 | 0 | 0.0 | 2.0 | 0.00 | 0.00 | 0.00 | 86 | 1018.2 |
| 20260902084057 | 74 | 0 | 0.0 | 2.0 | 0.00 | 0.00 | 0.00 | 86 | 1018.1 |
| 20260902083603 | 74 | 0 | 0.0 | 2.0 | 0.00 | 0.00 | 0.00 | 86 | 1018.1 |
| 20260902083102 | 74 | 0 | 0.0 | 2.0 | 0.00 | 0.00 | 0.00 | 85 | 1018.1 |
| 20260902082557 | 74 | 0 | 0.0 | 2.0 | 0.00 | 0.00 | 0.00 | 85 | 1018.0 |
| 20260902082057 | 75 | 0 | 0.0 | 0.0 | 0.00 | 0.00 | 0.00 | 84 | 1018.1 |
| 20260902081606 | 75 | 0 | 0.0 | 0.0 | 0.00 | 0.00 | 0.00 | 84 | 1018.0 |
| 20260902081057 | 75 | 0 | 0.0 | 0.0 | 0.00 | 0.00 | 0.00 | 84 | 1017.9 |
| 20260902080557 | 75 | 0 | 0.0 | 1.0 | 0.00 | 0.00 | 0.00 | 84 | 1017.8 |
| 20260902080101 | 75 | 0 | 0.0 | 1.0 | 0.00 | 0.00 | 0.00 | 84 | 1017.8 |
| 20260902075556 | 75 | 0 | 0.0 | 1.0 | 0.00 | 0.00 | 0.00 | 83 | 1017.7 |
| 20260902075100 | 75 | 0 | 0.0 | 3.0 | 0.00 | 0.00 | 0.00 | 83 | 1017.7 |
| 20260902074606 | 75 | 0 | 0.0 | 4.0 | 0.00 | 0.00 | 0.00 | 83 | 1017.8 |
| 20260902074058 | 76 | 211 | 0.0 | 4.0 | 0.00 | 0.00 | 0.00 | 83 | 1017.7 |
| 20260902073557 | 76 | 222 | 1.0 | 4.0 | 0.00 | 0.00 | 0.00 | 83 | 1017.6 |
| 20260902073106 | 76 | 236 | 0.0 | 3.0 | 0.00 | 0.00 | 0.00 | 83 | 1017.5 |
| 20260902072557 | 76 | 0 | 1.0 | 3.0 | 0.00 | 0.00 | 0.00 | 83 | 1017.5 |
| 20260902072057 | 76 | 0 | 1.0 | 3.0 | 0.00 | 0.00 | 0.00 | 82 | 1017.5 |
| 20260902071607 | 76 | 255 | 1.0 | 4.0 | 0.00 | 0.00 | 0.00 | 82 | 1017.7 |
| 20260902071057 | 76 | 0 | 0.0 | 4.0 | 0.00 | 0.00 | 0.00 | 82 | 1017.5 |
| 20260902070559 | 76 | 0 | 1.0 | 3.0 | 0.00 | 0.00 | 0.00 | 82 | 1017.5 |
| 20260902070114 | 76 | 255 | 1.0 | 4.0 | 0.00 | 0.00 | 0.00 | 82 | 1017.4 |
| 20260902065559 | 76 | 251 | 1.0 | 4.0 | 0.00 | 0.00 | 0.00 | 82 | 1017.5 |
| 20260902065100 | 76 | 0 | 0.0 | 3.0 | 0.00 | 0.00 | 0.00 | 81 | 1017.5 |
| 20260902064610 | 77 | 263 | 0.0 | 5.0 | 0.00 | 0.00 | 0.00 | 81 | 1017.6 |
| 20260902064057 | 77 | 260 | 1.0 | 5.0 | 0.00 | 0.00 | 0.00 | 81 | 1017.6 |
| 20260902063559 | 77 | 249 | 1.0 | 5.0 | 0.00 | 0.00 | 0.00 | 81 | 1017.5 |
| 20260902063105 | 77 | 0 | 1.0 | 4.0 | 0.00 | 0.00 | 0.00 | 81 | 1017.5 |
| 20260902062600 | 77 | 0 | 0.0 | 0.0 | 0.00 | 0.00 | 0.00 | 81 | 1017.5 |
| 20260902062100 | 77 | 0 | 0.0 | 3.0 | 0.00 | 0.00 | 0.00 | 81 | 1017.7 |
| 20260902061059 | 77 | 0 | 1.0 | 4.0 | 0.00 | 0.00 | 0.00 | 80 | 1017.6 |
| 20260902060557 | 77 | 305 | 0.0 | 4.0 | 0.00 | 0.00 | 0.00 | 80 | 1017.6 |
| 20260902060114 | 78 | 269 | 1.0 | 8.0 | 0.00 | 0.00 | 0.00 | 80 | 1017.5 |
| 20260902055559 | 78 | 277 | 1.0 | 8.0 | 0.00 | 0.00 | 0.00 | 79 | 1017.6 |
| 20260902055059 | 78 | 277 | 3.0 | 8.0 | 0.00 | 0.00 | 0.00 | 79 | 1017.5 |
| 20260902054604 | 78 | 284 | 3.0 | 8.0 | 0.00 | 0.00 | 0.00 | 79 | 1017.5 |
| 20260902054056 | 78 | 283 | 2.0 | 11.0 | 0.00 | 0.00 | 0.00 | 79 | 1017.4 |
| 20260902053557 | 78 | 242 | 2.0 | 11.0 | 0.00 | 0.00 | 0.00 | 79 | 1017.3 |
| 20260902053121 | 78 | 271 | 3.0 | 11.0 | 0.00 | 0.00 | 0.00 | 79 | 1017.3 |
| 20260902052559 | 79 | 227 | 4.0 | 11.0 | 0.00 | 0.00 | 0.00 | 79 | 1017.2 |
| 20260902052057 | 79 | 257 | 4.0 | 11.0 | 0.00 | 0.00 | 0.00 | 79 | 1017.2 |
| 20260902051603 | 79 | 213 | 4.0 | 11.0 | 0.00 | 0.00 | 0.00 | 79 | 1017.3 |
| 20260902051102 | 78 | 242 | 4.0 | 11.0 | 0.00 | 0.00 | 0.00 | 79 | 1017.2 |
| 20260902050559 | 78 | 190 | 5.0 | 12.0 | 0.00 | 0.00 | 0.00 | 79 | 1017.3 |
| 20260902050122 | 78 | 250 | 3.0 | 12.0 | 0.00 | 0.00 | 0.00 | 79 | 1017.3 |
| 20260902045559 | 78 | 222 | 5.0 | 12.0 | 0.00 | 0.00 | 0.00 | 79 | 1017.2 |
| 20260902045057 | 78 | 257 | 4.0 | 10.0 | 0.00 | 0.00 | 0.00 | 79 | 1017.4 |
| 20260902044607 | 78 | 238 | 4.0 | 10.0 | 0.00 | 0.00 | 0.00 | 80 | 1017.2 |
| 20260902044058 | 79 | 243 | 5.0 | 10.0 | 0.00 | 0.00 | 0.00 | 79 | 1017.4 |
| 20260902043644 | 79 | 225 | 3.0 | 10.0 | 0.00 | 0.00 | 0.00 | 79 | 1017.5 |
| 20260902043107 | 79 | 275 | 4.0 | 10.0 | 0.00 | 0.00 | 0.00 | 80 | 1017.7 |
| 20260902042557 | 79 | 259 | 3.0 | 8.0 | 0.00 | 0.00 | 0.00 | 80 | 1017.7 |
| 20260902042057 | 78 | 264 | 2.0 | 6.0 | 0.00 | 0.00 | 0.00 | 80 | 1017.7 |
| 20260902041615 | 78 | 248 | 1.0 | 9.0 | 0.00 | 0.00 | 0.00 | 80 | 1017.7 |
| 20260902041057 | 78 | 221 | 3.0 | 9.0 | 0.00 | 0.00 | 0.00 | 80 | 1017.7 |
| 20260902040557 | 78 | 251 | 3.0 | 8.0 | 0.00 | 0.00 | 0.00 | 80 | 1017.6 |
| 20260902040106 | 79 | 248 | 2.0 | 8.0 | 0.00 | 0.00 | 0.00 | 80 | 1017.6 |
| 20260902035556 | 79 | 258 | 2.0 | 7.0 | 0.00 | 0.00 | 0.00 | 80 | 1017.7 |
| 20260902035059 | 79 | 0 | 3.0 | 7.0 | 0.00 | 0.00 | 0.00 | 80 | 1017.7 |
| 20260902034604 | 79 | 233 | 2.0 | 7.0 | 0.00 | 0.00 | 0.00 | 80 | 1017.8 |
| 20260902034056 | 79 | 254 | 2.0 | 8.0 | 0.00 | 0.00 | 0.00 | 79 | 1017.8 |
| 20260902033556 | 79 | 258 | 2.0 | 8.0 | 0.00 | 0.00 | 0.00 | 79 | 1017.8 |
| 20260902033114 | 79 | 223 | 2.0 | 8.0 | 0.00 | 0.00 | 0.00 | 79 | 1017.7 |
| 20260902032557 | 79 | 257 | 3.0 | 8.0 | 0.00 | 0.00 | 0.00 | 79 | 1017.7 |
| 20260902032057 | 79 | 258 | 3.0 | 7.0 | 0.00 | 0.00 | 0.00 | 79 | 1017.6 |
| 20260902031604 | 79 | 249 | 2.0 | 7.0 | 0.00 | 0.00 | 0.00 | 79 | 1017.7 |
| 20260902031057 | 79 | 261 | 2.0 | 7.0 | 0.00 | 0.00 | 0.00 | 79 | 1017.7 |
| 20260902030557 | 79 | 270 | 2.0 | 6.0 | 0.00 | 0.00 | 0.00 | 79 | 1017.7 |
| 20260902030103 | 80 | 254 | 1.0 | 6.0 | 0.00 | 0.00 | 0.00 | 79 | 1017.7 |
| 20260902025557 | 80 | 242 | 1.0 | 7.0 | 0.00 | 0.00 | 0.00 | 79 | 1017.8 |
| 20260902025057 | 80 | 260 | 1.0 | 7.0 | 0.00 | 0.00 | 0.00 | 78 | 1017.7 |
| 20260902024601 | 80 | 257 | 1.0 | 7.0 | 0.00 | 0.00 | 0.00 | 78 | 1017.7 |
| 20260902024057 | 80 | 238 | 2.0 | 7.0 | 0.00 | 0.00 | 0.00 | 79 | 1017.9 |
| 20260902023558 | 80 | 242 | 2.0 | 7.0 | 0.00 | 0.00 | 0.00 | 79 | 1017.9 |
| 20260902023102 | 80 | 267 | 0.0 | 4.0 | 0.00 | 0.00 | 0.00 | 79 | 1017.7 |
| 20260902022557 | 80 | 0 | 1.0 | 4.0 | 0.00 | 0.00 | 0.00 | 79 | 1017.6 |
| 20260902022101 | 80 | 0 | 1.0 | 7.0 | 0.00 | 0.00 | 0.00 | 78 | 1017.6 |
| 20260902021604 | 80 | 255 | 2.0 | 7.0 | 0.00 | 0.00 | 0.00 | 78 | 1017.6 |
| 20260902021057 | 81 | 232 | 2.0 | 7.0 | 0.00 | 0.00 | 0.00 | 78 | 1017.4 |
| 20260902020557 | 81 | 241 | 2.0 | 7.0 | 0.00 | 0.00 | 0.00 | 78 | 1017.4 |
| 20260902020105 | 81 | 254 | 2.0 | 5.0 | 0.00 | 0.00 | 0.00 | 78 | 1017.5 |
| 20260902015557 | 81 | 229 | 1.0 | 5.0 | 0.00 | 0.00 | 0.00 | 77 | 1017.5 |
| 20260902015057 | 81 | 0 | 1.0 | 4.0 | 0.00 | 0.00 | 0.00 | 77 | 1017.4 |
| 20260902014603 | 81 | 238 | 1.0 | 4.0 | 0.00 | 0.00 | 0.00 | 77 | 1017.3 |
| 20260902014056 | 82 | 249 | 0.0 | 4.0 | 0.00 | 0.00 | 0.00 | 76 | 1017.4 |
| 20260902013557 | 82 | 225 | 1.0 | 5.0 | 0.00 | 0.00 | 0.00 | 76 | 1017.3 |
| 20260902013101 | 82 | 0 | 1.0 | 5.0 | 0.00 | 0.00 | 0.00 | 76 | 1017.3 |
| 20260902012557 | 82 | 241 | 1.0 | 6.0 | 0.00 | 0.00 | 0.00 | 75 | 1017.4 |
| 20260902012056 | 82 | 0 | 0.0 | 6.0 | 0.00 | 0.00 | 0.00 | 75 | 1017.3 |
| 20260902011622 | 83 | 0 | 1.0 | 6.0 | 0.00 | 0.00 | 0.00 | 74 | 1017.3 |
| 20260902011100 | 83 | 0 | 2.0 | 8.0 | 0.00 | 0.00 | 0.00 | 74 | 1017.2 |
| 20260902010559 | 83 | 241 | 2.0 | 8.0 | 0.00 | 0.00 | 0.00 | 74 | 1017.3 |
| 20260902010116 | 83 | 236 | 1.0 | 5.0 | 0.00 | 0.00 | 0.00 | 74 | 1017.1 |
| 20260902005602 | 83 | 215 | 1.0 | 4.0 | 0.00 | 0.00 | 0.00 | 73 | 1017.1 |
| 20260902005056 | 84 | 0 | 0.0 | 5.0 | 0.00 | 0.00 | 0.00 | 72 | 1017.1 |
| 20260902004624 | 84 | 0 | 0.0 | 5.0 | 0.00 | 0.00 | 0.00 | 72 | 1017.0 |
| 20260902004059 | 84 | 233 | 2.0 | 5.0 | 0.00 | 0.00 | 0.00 | 72 | 1017.1 |
| 20260902003558 | 84 | 220 | 1.0 | 5.0 | 0.00 | 0.00 | 0.00 | 72 | 1016.9 |
| 20260902003108 | 84 | 219 | 1.0 | 5.0 | 0.00 | 0.00 | 0.00 | 71 | 1017.0 |
| 20260902002557 | 85 | 202 | 0.0 | 8.0 | 0.00 | 0.00 | 0.00 | 71 | 1017.0 |
| 20260902002058 | 85 | 218 | 2.0 | 8.0 | 0.00 | 0.00 | 0.00 | 71 | 1017.1 |
| 20260902001630 | 85 | 205 | 2.0 | 7.0 | 0.00 | 0.00 | 0.00 | 71 | 1017.1 |
| 20260902001056 | 85 | 209 | 1.0 | 6.0 | 0.00 | 0.00 | 0.00 | 71 | 1017.1 |
| 20260902000556 | 85 | 197 | 2.0 | 6.0 | 0.00 | 0.00 | 0.00 | 70 | 1017.2 |
| 20260902000107 | 86 | 204 | 2.0 | 5.0 | 0.00 | 0.00 | 0.00 | 70 | 1017.2 |
| 20260901235556 | 86 | 207 | 3.0 | 6.0 | 0.00 | 0.00 | 0.00 | 69 | 1017.3 |
| 20260901235100 | 86 | 230 | 2.0 | 6.0 | 0.00 | 0.00 | 0.00 | 69 | 1017.3 |
| 20260901234604 | 86 | 227 | 2.0 | 6.0 | 0.00 | 0.00 | 0.00 | 69 | 1017.2 |
| 20260901234057 | 87 | 190 | 2.0 | 5.0 | 0.00 | 0.00 | 0.00 | 69 | 1017.3 |
| 20260901233557 | 87 | 211 | 0.0 | 6.0 | 0.00 | 0.00 | 0.00 | 68 | 1017.4 |
| 20260901233118 | 87 | 212 | 2.0 | 6.0 | 0.00 | 0.00 | 0.00 | 68 | 1017.4 |
| 20260901232557 | 88 | 212 | 3.0 | 7.0 | 0.00 | 0.00 | 0.00 | 67 | 1017.5 |
| 20260901232059 | 88 | 200 | 3.0 | 8.0 | 0.00 | 0.00 | 0.00 | 66 | 1017.6 |
| 20260901231617 | 88 | 223 | 3.0 | 8.0 | 0.00 | 0.00 | 0.00 | 66 | 1017.5 |
| 20260901231056 | 89 | 0 | 3.0 | 8.0 | 0.00 | 0.00 | 0.00 | 65 | 1017.4 |
| 20260901230557 | 89 | 214 | 3.0 | 8.0 | 0.00 | 0.00 | 0.00 | 64 | 1017.5 |
| 20260901230104 | 89 | 202 | 4.0 | 8.0 | 0.00 | 0.00 | 0.00 | 63 | 1017.5 |
| 20260901225557 | 89 | 207 | 3.0 | 6.0 | 0.00 | 0.00 | 0.00 | 63 | 1017.5 |
| 20260901225059 | 90 | 213 | 2.0 | 8.0 | 0.00 | 0.00 | 0.00 | 63 | 1017.6 |
| 20260901224619 | 90 | 226 | 4.0 | 8.0 | 0.00 | 0.00 | 0.00 | 62 | 1017.7 |
| 20260901224057 | 90 | 200 | 3.0 | 9.0 | 0.00 | 0.00 | 0.00 | 61 | 1017.6 |
| 20260901223557 | 90 | 0 | 5.0 | 9.0 | 0.00 | 0.00 | 0.00 | 61 | 1017.5 |
| 20260901223105 | 91 | 265 | 4.0 | 10.0 | 0.00 | 0.00 | 0.00 | 61 | 1017.7 |
| 20260901222601 | 91 | 242 | 2.0 | 10.0 | 0.00 | 0.00 | 0.00 | 61 | 1017.8 |
| 20260901222102 | 91 | 254 | 4.0 | 10.0 | 0.00 | 0.00 | 0.00 | 60 | 1017.8 |
| 20260901221604 | 91 | 240 | 3.0 | 10.0 | 0.00 | 0.00 | 0.00 | 61 | 1017.8 |
| 20260901221059 | 91 | 245 | 5.0 | 9.0 | 0.00 | 0.00 | 0.00 | 61 | 1017.8 |
| 20260901220557 | 91 | 216 | 3.0 | 8.0 | 0.00 | 0.00 | 0.00 | 61 | 1017.7 |
| 20260901220106 | 91 | 254 | 3.0 | 8.0 | 0.00 | 0.00 | 0.00 | 62 | 1017.8 |
| 20260901215557 | 91 | 242 | 3.0 | 8.0 | 0.00 | 0.00 | 0.00 | 61 | 1017.8 |
| 20260901215100 | 90 | 241 | 3.0 | 10.0 | 0.00 | 0.00 | 0.00 | 62 | 1017.9 |
| 20260901214605 | 90 | 244 | 3.0 | 10.0 | 0.00 | 0.00 | 0.00 | 63 | 1017.8 |
| 20260901214056 | 90 | 241 | 3.0 | 10.0 | 0.00 | 0.00 | 0.00 | 61 | 1017.8 |
| 20260901213600 | 90 | 275 | 6.0 | 9.0 | 0.00 | 0.00 | 0.00 | 61 | 1017.8 |
| 20260901213125 | 91 | 242 | 3.0 | 8.0 | 0.00 | 0.00 | 0.00 | 62 | 1017.8 |
| 20260901212600 | 91 | 238 | 3.0 | 9.0 | 0.00 | 0.00 | 0.00 | 61 | 1017.9 |
| 20260901212102 | 91 | 273 | 4.0 | 10.0 | 0.00 | 0.00 | 0.00 | 62 | 1017.8 |
| 20260901211603 | 91 | 238 | 5.0 | 11.0 | 0.00 | 0.00 | 0.00 | 61 | 1017.9 |
| 20260901211058 | 91 | 257 | 5.0 | 11.0 | 0.00 | 0.00 | 0.00 | 60 | 1017.9 |
| 20260901210559 | 91 | 285 | 3.0 | 14.0 | 0.00 | 0.00 | 0.00 | 61 | 1017.8 |
| 20260901210118 | 91 | 207 | 6.0 | 14.0 | 0.00 | 0.00 | 0.00 | 60 | 1017.7 |
| 20260901205557 | 92 | 229 | 7.0 | 12.0 | 0.00 | 0.00 | 0.00 | 59 | 1017.8 |
| 20260901205057 | 92 | 251 | 5.0 | 13.0 | 0.00 | 0.00 | 0.00 | 60 | 1017.6 |
| 20260901204608 | 91 | 218 | 6.0 | 13.0 | 0.00 | 0.00 | 0.00 | 59 | 1017.7 |
| 20260901204102 | 92 | 206 | 6.0 | 13.0 | 0.00 | 0.00 | 0.00 | 59 | 1017.7 |
| 20260901203601 | 92 | 227 | 5.0 | 16.0 | 0.00 | 0.00 | 0.00 | 60 | 1017.7 |
| 20260901203103 | 92 | 219 | 5.0 | 16.0 | 0.00 | 0.00 | 0.00 | 60 | 1017.7 |
| 20260901202603 | 92 | 236 | 5.0 | 12.0 | 0.00 | 0.00 | 0.00 | 59 | 1017.7 |